Tracking 18957 objects as of 24-Jan-2018
HD Live streaming from Space Station
objects crossing your sky now

FENGYUN 1C DEB

Track FENGYUN 1C DEB now!
10-day predictions


NORAD ID: 30657
Int'l Code: 1999-025APP
Perigee: 825.9 km
Apogee: 857.5 km
Inclination: 99.0 °
Period: 101.6 minutes
Semi major axis: 7212 km
RCS: 0.026 m2 (small)
Launch date: May 10, 1999
Source: People's Republic of China (PRC)
Launch site: Taiyaun Space Center, China (TSC)

Note: This is SATELLITE DEBRIS
aabbcc
Your satellite tracking list
Your tracking list is empty




NASA's NSSDC Master Catalog

Two Line Element Set (TLE):
1 30657U 99025APP 18023.81217858  .00000686  00000-0  36120-3 0  9995
2 30657  99.0139  53.0211 0021904 349.1080  66.4350 14.17293521562908
Source of the keplerian elements: AFSPC